Lid_Strength_Index
13 13 13 13 13 13 13 12 12 12 11 12 12 12 13 13 13 13 13 13 13 13 13 13 13 12 13 12 12 12 12 12 13 12 11 10 10 10 10 10 9 9 9
15 15 15 15 15 15 15 15 14 14 13 13 13 14 14 14 15 15 15 14 14 14 13 14 14 13 14 13 13 13 13 12 13 14 12 12 12 12 12 12 11 10 11
15 16 16 16 16 16 16 16 15 15 14 14 15 15 15 16 16 15 15 15 14 14 15 15 15 15 15 15 14 14 14 13 13 14 15 13 13 13 14 13 13 13 12
16 17 17 17 17 16 16 16 15 16 16 16 16 16 16 16 16 16 16 16 15 15 14 15 15 15 15 15 14 14 14 14 15 15 15 15 15 15 15 16 16 15 15
17 17 17 17 17 17 17 17 18 17 18 17 17 17 16 16 16 16 15 15 16 16 15 15 15 15 13 13 14 15 15 15 15 16 16 17 17 17 17 16 16 16 15
17 17 17 17 17 18 18 18 18 18 18 17 17 17 16 15 14 14 14 15 15 15 16 15 15 15 15 14 14 13 14 15 16 17 17 17 17 16 16 16 17 17 18
18 18 18 18 18 18 18 18 18 18 18 18 17 16 16 15 13 13 14 15 15 15 15 16 16 16 16 15 15 15 15 14 14 16 17 17 17 16 16 17 16 16 17
18 18 18 17 18 18 18 18 18 18 18 18 17 16 16 15 13 14 14 15 16 16 16 17 17 17 16 15 16 16 16 16 16 16 16 16 16 15 15 16 16 17 16
17 17 17 17 17 18 18 18 18 17 17 17 17 17 16 15 14 14 15 16 17 17 17 17 17 17 15 14 17 17 18 17 15 15 15 15 15 15 15 17 19 19 21
16 16 16 16 17 18 18 18 17 16 17 17 17 17 17 16 14 15 16 16 17 18 17 17 17 16 15 15 17 18 18 18 17 18 18 17 17 17 15 16 17 21 21
16 17 17 17 17 18 18 17 17 17 17 18 18 18 18 17 16 15 16 17 17 18 17 18 17 16 16 16 17 18 18 17 19 20 20 19 18 18 17 17 17 18 20
17 18 18 18 18 18 18 18 18 18 19 19 20 20 19 18 17 16 16 17 17 18 19 18 17 17 17 18 18 17 17 19 21 22 22 21 20 19 18 18 18 18 17
18 19 19 18 18 18 18 19 19 19 19 20 20 20 20 19 19 18 17 17 17 18 17 18 18 19 19 20 19 19 20 21 22 24 23 21 20 19 19 19 18 18 18
19 20 19 19 19 19 18 18 19 19 20 19 20 21 21 21 20 19 18 18 18 18 19 21 21 21 21 21 21 21 21 21 22 23 22 21 21 21 21 20 21 20 21
20 20 20 20 20 20 19 19 19 19 18 20 20 20 22 22 21 18 18 18 19 20 26 27 26 25 25 24 23 23 22 22 23 22 23 23 23 22 22 20 20 21 22
20 20 20 21 20 20 20 20 18 18 17 18 18 19 20 19 18 18 17 17 17 19 32 33 29 27 26 25 26 25 24 24 23 23 24 24 24 23 22 21 21 22 22
20 20 21 21 21 21 21 21 22 19 18 17 18 18 18 19 18 18 18 17 19 24 35 33 30 28 27 26 26 26 26 24 23 24 24 24 22 22 23 23 22 22 23
20 21 21 21 22 22 22 22 23 24 25 24 21 21 19 19 19 19 18 20 30 29 35 35 34 31 29 28 27 27 26 26 26 25 24 24 24 24 24 24 23 24 23
22 23 23 23 23 23 24 24 25 25 26 27 27 24 24 20 20 19 18 28 32 35 36 36 33 32 30 30 29 29 29 28 26 26 26 26 25 26 25 24 24 23 23
24 23 23 24 24 25 25 26 26 26 27 28 28 28 28 28 32 31 31 33 35 34 34 34 33 33 33 33 32 31 30 29 28 28 27 26 26 26 25 25 25 25 24
24 24 24 25 25 25 25 26 26 27 27 28 28 27 25 30 30 31 31 31 32 33 32 33 33 34 33 33 33 32 31 28 27 27 27 27 27 28 26 25 25 25 25
24 25 25 25 25 25 26 26 26 27 27 28 29 29 22 29 31 32 33 32 32 32 32 32 32 31 30 30 30 31 30 29 28 28 28 27 28 27 27 27 26 26 26
25 26 26 27 26 27 27 27 28 28 29 31 31 32 34 33 34 33 32 32 33 33 32 32 30 29 29 28 28 28 29 28 27 29 29 28 28 28 28 28 27 27 26
26 26 27 28 28 28 28 29 30 30 31 31 33 34 33 34 33 31 31 32 32 31 31 30 30 29 28 29 28 28 27 27 27 27 29 28 28 28 28 28 28 27 26
27 27 27 28 28 29 30 30 30 30 32 32 32 33 34 32 32 32 32 31 31 31 29 29 28 28 29 29 28 28 27 24 24 25 26 27 27 28 28 29 28 27 24
27 27 27 28 28 29 29 30 31 31 32 32 32 32 32 32 32 31 31 31 29 29 28 28 28 29 29 28 28 27 26 23 25 25 26 27 27 27 27 26 25 22 22